User: anonymous   Login
Location: Unspecified
(0.0000°N, 0.0000°E)
Time: 19:03:22
(UTC+00:00)
Language:

NOSS 2-1 (C) - Orbit

View from above orbital plane
View from above orbital plane
View from above satellite
View from above satellite

Ground track
Ground track

The orbit data is extracted from the following two-line orbital elements,

1 20691U 90050C   19076.78621238 0.00000250  00000-0  47430-4 0    04
2 20691  63.3267 337.6094 0841000  39.7907 320.2093 13.41890658    01
Epoch (UTC): 17 March 2019 18:52:08
Eccentricity: 0.0841000
inclination: 63.3267°
perigee height: 473 km
apogee height: 1731 km
right ascension of ascending node: 337.6094°
argument of perigee: 39.7907°
revolutions per day: 13.41890658
mean anomaly at epoch: 320.2093°
orbit number at epoch: 0

The dashed part of the orbit path shows where the satellite is in the earth's shadow,  

DLR